This is the latest recevied weather packets stored in our database for station/object N6ABM. If no packets are shown the sender has not sent any weather packets the latest 1 day(s).
| Time | Temp. | Humidity | Pressure | Rain* | Wind** | Luminosity | Snow |
|---|---|---|---|---|---|---|---|
| 1778077517 | 18.89° C | 37% | 1016.8 hPa | 0 mm | - | - | - |
| 1778077217 | 18.33° C | 36% | 1016.8 hPa | 0 mm | - | - | - |
| 1778076917 | 17.78° C | 38% | 1016.7 hPa | 0 mm | - | - | - |
| 1778076617 | 17.78° C | 39% | 1016.6 hPa | 0 mm | - | - | - |
| 1778076316 | 17.22° C | 40% | 1016.5 hPa | 0 mm | - | - | - |
| 1778075717 | 16.67° C | 45% | 1016.4 hPa | 0 mm | - | - | - |
| 1778074517 | 15.56° C | 47% | 1016.2 hPa | 0 mm | - | - | - |
| 1778073617 | 15° C | 47% | 1016.1 hPa | 0 mm | - | - | - |
| 1778073317 | 14.44° C | 49% | 1016.1 hPa | 0 mm | - | - | - |
| 1778073017 | 14.44° C | 48% | 1016 hPa | 0 mm | - | - | - |
| 1778071817 | 14.44° C | 46% | 1015.8 hPa | 0 mm | - | - | - |
| 1778071217 | 14.44° C | 46% | 1015.7 hPa | 0 mm | - | - | - |
| 1778070917 | 14.44° C | 46% | 1015.6 hPa | 0 mm | - | - | - |
| 1778070317 | 15° C | 46% | 1015.5 hPa | 0 mm | - | - | - |
| 1778070017 | 15° C | 46% | 1015.5 hPa | 0 mm | - | - | - |
| 1778069717 | 15° C | 46% | 1015.4 hPa | 0 mm | - | - | - |
| 1778068517 | 15.56° C | 45% | 1015.3 hPa | 0 mm | - | - | - |
| 1778067917 | 15.56° C | 45% | 1015.3 hPa | 0 mm | - | - | - |
| 1778067617 | 15.56° C | 44% | 1015.3 hPa | 0 mm | - | - | - |
| 1778067317 | 15.56° C | 44% | 1015.2 hPa | 0 mm | - | - | - |
| 1778064617 | 16.11° C | 43% | 1015 hPa | 0 mm | - | - | - |
| 1778064317 | 15.56° C | 42% | 1015 hPa | 0 mm | - | - | - |
| 1778064017 | 15.56° C | 43% | 1014.9 hPa | 0 mm | - | - | - |
| 1778063417 | 16.11° C | 43% | 1014.8 hPa | 0 mm | - | - | - |
| 1778063117 | 16.11° C | 43% | 1014.8 hPa | 0 mm | - | - | - |
* Rain latest hour (hover to see other rain measurements)
** Current wind speed in m/s (hover to see current wind gust speed)